Montreal Mirabel, Quebec

11:50 PM EDT on September 21, 2017 (GMT -0400)
Montreal Mirabel

Weather History for CYMX - January, 2015

Change the Weather History Date:

Friday, January 9, 2015

  Actual Average Record
Temperature  
Mean Temperature 10 °F -  
Max Temperature 19 °F 18 °F 48 °F (2008)
Min Temperature 0 °F 4 °F -20 °F (2004)
Degree Days  
Heating Degree Days 56    
Moisture  
Dew Point 3 °F    
Average Humidity 74    
Maximum Humidity 86    
Minimum Humidity 61    
Precipitation  
Precipitation 0.00 in - - ()
Sea Level Pressure  
Sea Level Pressure 29.80 in    
Wind  
Wind Speed 6 mph ()    
Max Wind Speed 15 mph    
Max Gust Speed 24 mph    
Visibility 5.5 miles    
Events Snow    
Averages and records for this station are not official NWS values.
T = Trace of Precipitation, MM = Missing Value Source: Averaged Metar Reports

Daily Weather History Graph

Daily Weather History Graph

Search for Another Location

Airport or City:

Trip Planner

Search our weather history database for the weather conditions in past years. The results will help you decide how hot, cold, wet, or windy it might be!

Date:

Astronomy

Jan. 09, 2015 Rise Set
Actual Time 7:35 AM EST 4:30 PM EST
Civil Twilight 7:02 AM EST 5:04 PM EST
Nautical Twilight 6:24 AM EST 5:41 PM EST
Astronomical Twilight 5:49 AM EST 6:17 PM EST
Moon 9:16 PM EST (1/9) 9:37 AM EST (1/9)
Length of Visible Light 10h 02m
Length of Day
8h 55m
Waning Gibbous, 82% of the Moon is Illuminated
Jan 9
Waning Gibbous
Jan 13
Last Quarter
Jan 20
New
Jan 26
First Quarter
Feb 3
Full

Hourly Weather History & Observations

Time (EST) Temp. Windchill Dew Point Humidity Pressure Visibility Wind Dir Wind Speed Gust Speed Precip Events Conditions
12:00 AM -0.4 °F -8.3 °F -5.8 °F 78% 29.87 in 3.0 mi NE 3.5 mph - N/A Snow Light Snow
12:21 AM -0.4 °F -8.3 °F -5.8 °F 78% 29.86 in 2.0 mi North 3.5 mph - N/A Snow Light Snow
1:00 AM -0.4 °F -12.0 °F -4.0 °F 85% 29.83 in 3.0 mi NE 5.8 mph - N/A Snow Light Snow
1:12 AM -0.4 °F -8.3 °F -4.0 °F 85% 29.82 in 10.0 mi NE 3.5 mph - N/A   Overcast
2:00 AM 1.4 °F -8.3 °F -4.0 °F 78% 29.81 in 3.0 mi NNE 4.6 mph - N/A Snow Light Snow
2:15 AM 1.4 °F -8.3 °F -4.0 °F 78% 29.80 in 2.0 mi NNE 4.6 mph - N/A Snow Light Snow
2:22 AM 1.4 °F -8.3 °F -2.2 °F 85% 29.79 in 1.0 mi NE 4.6 mph - N/A Snow Light Snow
3:00 AM 1.4 °F - -2.2 °F 85% 29.77 in 1.5 mi NNE 2.3 mph - N/A Snow Light Snow
4:00 AM 1.4 °F - -2.2 °F 85% 29.73 in 1.0 mi Variable 2.3 mph - N/A Snow Light Snow
4:30 AM 1.4 °F - -2.2 °F 85% 29.71 in 1.0 mi Variable 2.3 mph - N/A Snow Light Snow
5:00 AM 3.2 °F - -2.2 °F 78% 29.70 in 1.0 mi NNE 2.3 mph - N/A Snow Light Snow
6:00 AM 3.2 °F - -0.4 °F 85% 29.69 in 1.5 mi Calm Calm - N/A Snow Light Snow
6:35 AM 5.0 °F - 1.4 °F 85% 29.68 in 10.0 mi Calm Calm - N/A Snow Light Snow
7:00 AM 5.0 °F - 1.4 °F 85% 29.67 in 4.0 mi East 2.3 mph - N/A Snow Light Snow
7:30 AM 14.0 °F 2.0 °F 10.4 °F 86% 29.67 in 2.0 mi SSW 9.2 mph - N/A Snow Light Snow
8:00 AM 15.8 °F 3.4 °F 12.2 °F 86% 29.68 in 2.0 mi SSW 10.4 mph - N/A Snow Light Snow
8:43 AM 15.8 °F 2.1 °F 12.2 °F 86% 29.68 in 6.0 mi SSW 12.7 mph - N/A Snow Light Snow
9:00 AM 15.8 °F 2.1 °F 10.4 °F 79% 29.69 in 5.0 mi SW 12.7 mph 19.6 mph N/A Snow Light Snow
10:00 AM 17.6 °F 6.4 °F 8.6 °F 68% 29.70 in 6.0 mi SW 9.2 mph 17.3 mph N/A Snow Light Snow
11:00 AM 17.6 °F 5.7 °F 6.8 °F 63% 29.71 in 15.0 mi SW 10.4 mph 18.4 mph N/A Snow Light Snow
12:00 PM 17.6 °F 5.7 °F 6.8 °F 63% 29.71 in 15.0 mi SW 10.4 mph 19.6 mph N/A Snow Light Snow
1:00 PM 17.6 °F 3.2 °F 6.8 °F 63% 29.72 in 10.0 mi WSW 15.0 mph 24.2 mph N/A Snow Light Snow
2:00 PM 17.6 °F 3.7 °F 8.6 °F 68% 29.75 in 4.0 mi WSW 13.8 mph 21.9 mph N/A Snow Light Snow
3:00 PM 19.4 °F 6.6 °F 8.6 °F 63% 29.79 in 15.0 mi WSW 12.7 mph 18.4 mph N/A Snow Low Drifting Snow
4:00 PM 17.6 °F 6.4 °F 6.8 °F 63% 29.83 in 25.0 mi WSW 9.2 mph - N/A Snow Low Drifting Snow
5:00 PM 15.8 °F 7.2 °F 5.0 °F 62% 29.86 in 25.0 mi SW 5.8 mph - N/A Snow Low Drifting Snow
6:00 PM 15.8 °F 6.1 °F 5.0 °F 62% 29.88 in 25.0 mi SW 6.9 mph - N/A Snow Low Drifting Snow
6:35 PM 15.8 °F 5.1 °F 5.0 °F 62% 29.89 in 4.0 mi SW 8.1 mph - N/A Snow Light Snow Showers
6:41 PM 15.8 °F 3.4 °F 6.8 °F 68% 29.89 in 2.0 mi WSW 10.4 mph 20.7 mph N/A Snow Light Snow Showers
6:49 PM 15.8 °F 1.4 °F 8.6 °F 73% 29.89 in 10.0 mi SW 13.8 mph 23.0 mph N/A Snow Light Snow Showers
7:00 PM 15.8 °F 2.1 °F 10.4 °F 79% 29.89 in 15.0 mi SW 12.7 mph 21.9 mph N/A Snow Light Snow Showers
8:00 PM 14.0 °F -1.4 °F 5.0 °F 67% 29.92 in 25.0 mi WSW 15.0 mph 24.2 mph N/A Snow Low Drifting Snow
9:00 PM 12.2 °F -1.0 °F 1.4 °F 62% 29.97 in 25.0 mi West 10.4 mph 24.2 mph N/A Snow Low Drifting Snow
10:00 PM 8.6 °F -5.5 °F -0.4 °F 67% 30.00 in 25.0 mi WNW 10.4 mph 18.4 mph N/A Snow Low Drifting Snow
11:00 PM 6.8 °F -6.9 °F -4.0 °F 61% 30.05 in 25.0 mi SW 9.2 mph - N/A   Partly Cloudy